Regional Weather Roundup
Issued by NWS

Home | Current Version | Previous Version | Graphics & Text | Print | Product List | Glossary On
Versions: 1 2 3 4 5 6 7 8 9 10 11 12 13 14 15 16 17 18 19 20 21 22 23 24 25 26 27 28 29 30 31 32 33 34 35 36 37 38 39 40 41 42 43 44 45 46 47 48 49 50
000
ASUS43 KIND 300559
RWRIN

WEATHER ROUNDUP FOR INDIANA
NATIONAL WEATHER SERVICE INDIANAPOLIS IN
200 AM EDT TUE AUG 30 2016

NOTE: "FAIR" INDICATES FEW OR NO CLOUDS BELOW 12,000 FEET WITH NO
SIGNIFICANT WEATHER AND/OR OBSTRUCTIONS TO VISIBILITY.

* - STATION DOES NOT REPORT WEATHER SUCH AS PRECIPITATION OR FOG.

+ - STATION NOT QUALITY CONTROLLED BY THE NATIONAL WEATHER SERVICE.
    USE DATA WITH CAUTION...ESPECIALLY DEWPOINT AND RELATIVE
    HUMIDITY OBSERVATIONS.

INZ001>003-010>013-019-020-300700-
NORTHWEST INDIANA

CITY           SKY/WX    TMP DP  RH WIND       PRES   REMARKS
KNOX *+        FAIR      70  59  68 CALM      30.18S
MONTICELLO +   CLEAR     72  67  86 CALM      30.17S
6HR MIN TEMP:  72; 6HR MAX TEMP:  82;

RENSSELAER +   CLEAR     70  70 100 CALM      30.18S

$$

LMZ046-743>745-300700-
SOUTHERN LAKE MICHIGAN

STATION/POSITION TIME  TEMP    WIND        PRES    WAVE
                       AIR SEA DIR/SP/G            HT
                 (UTC) (F)     (DEG/KT/KT) (MB)    (FT)
BURNS HARBOR     0502   78     120/  3/  7 1022.0S
MICHIGAN CITY    0500   76     120/  6/  7   N/A
5NW MICH CITY    0500   74 76  140/  4/  4   N/A     1

$$

INZ004-005-014>016-021>024-300700-
NORTH CENTRAL INDIANA

CITY           SKY/WX    TMP DP  RH WIND       PRES   REMARKS
GOSHEN         FAIR      72  67  84 SE6       30.20S
6HR MIN TEMP:  71; 6HR MAX TEMP:  80;

SOUTH BEND     FAIR      74  71  91 SE5       30.19S
6HR MIN TEMP:  71; 6HR MAX TEMP:  80;


$$

INZ006>009-017-018-025>027-300700-
NORTHEAST INDIANA

CITY           SKY/WX    TMP DP  RH WIND       PRES   REMARKS
ANGOLA *+      CLEAR     68  61  77 SE3       30.21S
FORT WAYNE     PTCLDY    69  65  86 SE5       30.19F
6HR MIN TEMP:  68; 6HR MAX TEMP:  81;


$$

INZ028-029-035-036-043>045-051>053-300700-
WEST CENTRAL INDIANA

CITY           SKY/WX    TMP DP  RH WIND       PRES   REMARKS
CRAWFORDSVL +  CLEAR     68  68 100 CALM      30.17S FOG
6HR MIN TEMP:  68; 6HR MAX TEMP:  79;

GREENCASTLE +  CLEAR     72  72 100 CALM      30.18S
LAFAYETTE      CLEAR     72  72 100 CALM      30.16S
6HR MIN TEMP:  72; 6HR MAX TEMP:  81;

TERRE HAUTE    CLEAR     72  69  90 CALM      30.15F
6HR MIN TEMP:  71; 6HR MAX TEMP:  85;


$$

INZ030>032-037>040-046>048-054>057-064-065-300700-
CENTRAL INDIANA

CITY           SKY/WX    TMP DP  RH WIND       PRES   REMARKS
INDIANAPOLIS   CLEAR     78  70  76 E3        30.16S
6HR MIN TEMP:  77; 6HR MAX TEMP:  85;

-EAGLE CREEK   CLEAR     74  70  87 N5        30.17R
6HR MIN TEMP:  74; 6HR MAX TEMP:  86;

KOKOMO *+      CLEAR     70  68  94 SE5       30.18S
6HR MIN TEMP:  70; 6HR MAX TEMP:  81;

MT COMFORT *+  CLEAR     70  68  94 NE3       30.18S
SHELBYVILLE    CLEAR     72  68  87 E5        30.16F
6HR MIN TEMP:  72; 6HR MAX TEMP:  83;


$$

INZ033-034-041-042-049-050-058-059-300700-
EAST CENTRAL INDIANA

CITY           SKY/WX    TMP DP  RH WIND       PRES   REMARKS
MUNCIE         CLEAR     72  69  90 E3        30.19S
6HR MIN TEMP:  71; 6HR MAX TEMP:  82;


$$

INZ060-061-067>069-081>083-085>088-300700-
SOUTHWEST INDIANA

CITY           SKY/WX    TMP DP  RH WIND       PRES   REMARKS
EVANSVILLE     CLEAR     76  70  82 NE3       30.13F
6HR MIN TEMP:  75; 6HR MAX TEMP:  85;

HUNTINGBURG *+ CLEAR     73  70  88 CALM      30.13F
6HR MIN TEMP:  73; 6HR MAX TEMP:  82;


$$

INZ062-063-066-070>080-084-089>092-300700-
SOUTH CENTRAL AND SOUTHEAST INDIANA

CITY           SKY/WX    TMP DP  RH WIND       PRES   REMARKS
BLOOMINGTON    CLEAR     72  69  90 CALM      30.16F
6HR MIN TEMP:  70; 6HR MAX TEMP:  83;

MADISON *+     CLEAR     70  68  94 CALM      30.18S

$$





USA.gov is the U.S. government's official web portal to all federal, state and local government web resources and services.